World > North America > United States > Iowa > Knoke

Hourly Knoke, IA Regional Weather

Feedback E-mail the Weather

Quick WX

Knoke, IA Weather Maps

°F °C°F °C
Knoke Weather Map
UTC Time: 8/19/2022, 12:07
Your Time:

Knoke, IA Regional Weather

Expires:202208191300;;310488
ASUS43 KDMX 191206
RWRIA 

WEATHER ROUNDUP FOR IOWA
NATIONAL WEATHER SERVICE DES MOINES IA
700 AM CDT FRI AUG 19 2022

NOTE: "FAIR" INDICATES FEW OR NO CLOUDS BELOW 12,000 FEET WITH NO
SIGNIFICANT WEATHER AND/OR OBSTRUCTIONS TO VISIBILITY.

* - THESE STATIONS ARE NOT NWS STATIONS...THUS NOT UNDER NWS
QUALITY CONTROL.  THEY ALSO DO NOT REPORT WEATHER SUCH 
AS PRECIPITATION OR FOG.  


IAZ001>003-012>014-020>022-031>034-043>046-191300-
   NORTHWEST IOWA
  
CITY           SKY/WX    TMP DP  RH WIND       PRES   REMARKS
CARROLL *      PTCLDY    61  61 100 W5        29.86  FOG              
CHEROKEE *     CLOUDY    56  56 100 CALM      29.87  FOG              
DENISON *      FOG       59  59 100 CALM      29.88S VSB 3/4          
LE MARS *      CLEAR     61  61 100 CALM      29.85                   
MAURICE *      FAIR      61  61 100 W7        29.85                   
SHELDON *      CLEAR     57  57 100 CALM      29.85  FOG              
SIOUX CITY     PTCLDY    60  60 100 W5        29.87S FOG              
6HR MIN TEMP:  60; 6HR MAX TEMP:  64;                                

SPENCER        FOG       56  54  93 CALM      29.86S VSB 1/4          
6HR MIN TEMP:  55; 6HR MAX TEMP:  60; 6HR PCP: TRACE;                

STORM LAKE *   FOG       57  57 100 W7        29.87  VSB<1/4          
$$
 

SKY/WX - Weather  TMP - Temperature  DP - Dew Point  RH - Humidity
WIND - Wind Direction/Speed PRES - Barometric Pressure VSB - Visibility
WCI - Wind Chill Index E13G22 Wind - East Wind 13 mph/Gusts of 22 mph

Trending Headlines

Knoke Radar Loop



Knoke Quick Facts


National Two Day Weather Forecast


E-mail the Knoke Weather Forecast

Voice your opinion or tell us about page issues...